{"data":{"norad_id":67677,"epoch":"2026-05-25T03:57:39.379104Z","epoch_age_seconds":58033,"freshness":"FRESH","line1":"1 67677U 26023D   26145.16503911  .00008213  00000+0  33675-3 0  9990","line2":"2 67677  96.6330 209.3515 0017993 212.2590 147.7550 15.24319819 16499","mean_motion":15.24319819,"eccentricity":0.0017993,"inclination_deg":96.633,"raan_deg":209.3515,"arg_perigee_deg":212.259,"mean_anomaly_deg":147.755,"bstar":0.00033675,"rev_number":1649,"period_min":94.468364319024,"perigee_km":480.46571741027,"apogee_km":505.1915743836,"semimajor_km":6870.9656458969,"source":"CELESTRAK","updated_at":"2026-05-25T13:38:07.183823Z"}}